Location: Kimberly
(42.5380°N, 114.3640°W)
Time: 01:09:41
(UTC-06:00)

Tiangong - Visible Passes

Search period start: 28 May 2023 00:00
Search period end: 07 June 2023 00:00
Orbit: 377 x 392 km, 41.5° (Epoch: 27 May)

Date Brightness Start Highest point End Pass type
(mag) Time Alt. Az. Time Alt. Az. Time Alt. Az.
31 May 0.2 05:02:28 10° S 05:04:14 14° SSE 05:05:59 10° ESE visible
02 Jun -0.5 04:40:06 18° S 04:41:18 22° SSE 04:43:52 10° E visible
03 Jun 0.5 03:42:51 12° SE 03:42:51 12° SE 03:43:26 10° ESE visible
03 Jun -1.7 05:15:03 10° WSW 05:18:03 47° SSE 05:21:09 10° E visible
04 Jun -1.3 04:17:45 31° S 04:18:16 33° SSE 04:21:11 10° E visible
05 Jun 0.4 03:20:23 14° ESE 03:20:23 14° ESE 03:21:03 10° E visible
05 Jun -2.1 04:52:34 15° WSW 04:55:01 62° S 04:58:10 10° E visible
06 Jun -1.8 03:55:11 47° SSE 03:55:11 47° SSE 03:58:11 10° E visible
